Wind_Speed
20 25 25 27 28 31 44 48 47 42 41 34 23 22 17 20 14 19 17 14 10 10 13 16 18 17 16 12 12 8 13 17 19 17 15 12 9 7 9 15 18 17 12 8 13 14 18 21 23
22 28 29 26 30 36 44 49 48 47 38 38 31 30 26 24 20 22 18 18 20 21 21 21 20 18 18 16 13 15 18 22 20 18 14 11 7 7 12 17 20 21 8 8 11 14 21 22 19
17 26 29 32 36 37 40 47 51 51 44 41 39 37 29 29 27 25 24 26 26 26 24 25 23 21 21 21 20 19 24 22 21 17 13 8 10 8 16 18 19 23 11 12 13 15 16 22 22
11 26 31 32 36 36 37 43 51 51 50 42 44 43 40 36 32 29 32 32 28 25 25 28 29 24 23 23 20 25 23 22 20 15 10 5 6 11 15 17 16 20 13 13 14 15 12 14 21
8 24 28 31 35 37 41 42 48 51 50 46 45 46 44 42 35 34 35 32 30 31 31 31 26 23 23 22 23 27 22 20 18 12 6 3 8 11 13 17 16 17 10 12 12 13 15 16 16
13 16 26 27 33 39 38 42 41 47 49 48 45 42 43 41 39 37 36 34 34 34 32 29 26 24 25 25 27 26 20 16 12 9 6 8 11 12 13 14 14 17 18 7 11 12 14 12 13
15 20 23 26 31 35 38 39 42 43 43 44 42 44 42 42 40 37 37 36 34 33 31 28 26 26 25 24 25 22 17 12 10 8 10 11 12 12 12 14 13 16 19 5 12 12 15 22 24
8 16 20 22 24 32 34 38 37 39 38 38 39 40 44 42 42 40 37 36 33 32 30 27 25 23 24 23 19 16 12 11 9 10 8 8 11 12 13 13 12 15 15 9 17 19 22 20 17
9 13 15 16 19 24 30 31 33 35 32 33 31 34 39 40 38 37 35 35 35 34 32 30 25 22 20 16 14 12 10 10 8 8 6 6 7 9 10 10 12 13 12 10 15 15 11 15 16
11 11 12 15 15 17 22 24 28 29 32 30 26 25 26 28 31 31 30 30 30 29 29 26 26 22 18 15 14 12 9 8 7 6 3 2 4 5 6 9 10 9 8 13 10 8 4 12 17
9 11 15 18 16 16 20 17 22 18 24 27 25 19 19 18 21 21 22 22 21 23 21 21 17 15 14 11 8 7 7 7 7 4 4 5 4 3 0 3 3 4 3 5 12 10 7 8 8
4 8 12 14 16 19 18 16 21 13 15 19 22 20 14 13 12 12 14 13 13 11 13 14 12 10 8 6 5 4 4 2 1 2 3 4 5 4 3 3 3 3 3 3 3 13 6 4 3
7 10 15 12 15 15 14 15 13 12 11 14 14 15 14 11 11 9 8 7 6 5 6 6 7 7 4 3 1 2 1 2 2 4 5 7 7 6 8 7 5 2 3 5 2 4 9 7 2
2 3 12 11 13 15 16 14 11 10 11 16 13 9 11 12 11 7 6 6 4 2 1 2 1 1 1 5 9 3 1 2 5 6 9 11 12 9 7 9 6 5 7 8 7 2 5 10 7
11 6 8 15 13 10 11 11 10 11 11 9 7 16 11 10 13 12 9 8 6 6 7 7 2 3 5 6 9 9 10 8 8 9 9 11 12 15 12 12 10 11 11 10 16 14 11 9 11
3 2 6 10 9 9 7 10 15 11 11 7 8 11 14 3 9 13 15 14 13 11 13 14 12 11 12 13 13 14 14 15 15 16 16 16 16 15 14 14 17 20 18 11 12 17 17 14 15
5 6 11 9 14 12 7 12 13 8 13 14 13 9 16 13 9 11 15 13 13 16 21 23 24 21 22 22 21 20 19 21 22 22 23 24 22 21 20 19 13 17 16 15 20 18 18 18 18
13 13 13 12 19 22 17 14 22 22 17 18 10 8 9 11 14 15 23 16 18 26 25 27 26 27 28 29 30 29 26 27 27 26 29 31 31 27 26 24 22 20 21 18 21 23 22 25 23
13 18 17 22 20 21 20 21 23 23 21 18 14 8 13 13 15 24 25 28 36 38 35 29 25 29 28 32 32 35 35 33 31 32 33 33 33 33 32 31 27 24 25 23 26 25 21 21 27
23 25 22 25 25 25 22 20 21 20 20 18 22 25 27 33 41 34 39 40 42 43 37 28 26 31 28 31 36 38 36 34 34 35 34 34 34 34 32 36 35 32 33 34 34 29 26 26 29
22 23 26 34 32 26 28 25 27 23 21 24 29 32 32 32 35 39 44 47 51 45 28 30 33 32 30 33 39 42 43 42 40 39 41 41 41 41 40 38 37 37 38 42 41 40 35 35 33
25 26 30 35 27 30 29 27 26 24 24 24 26 32 36 39 40 45 48 53 50 35 27 31 32 32 29 33 33 36 43 47 52 53 52 53 51 49 49 48 44 43 43 42 39 44 46 42 42
30 31 31 29 29 29 26 28 28 30 30 29 31 32 35 38 41 40 35 37 34 33 35 33 33 28 29 30 29 31 39 45 47 49 51 49 49 53 52 50 38 51 43 45 45 38 44 46 47
31 34 35 30 27 33 37 39 37 35 34 37 37 35 33 32 31 29 31 32 32 33 36 38 32 29 38 35 29 33 38 43 41 43 46 48 47 48 52 53 52 48 40 49 47 45 42 44 48
32 30 33 35 40 36 39 40 43 40 38 36 37 38 33 31 27 26 30 28 28 31 31 32 34 30 19 22 35 39 45 47 47 49 51 49 41 45 52 46 54 53 49 47 53 51 50 45 41
40 39 39 41 43 41 37 37 41 37 34 32 34 36 35 33 34 34 31 30 31 34 35 36 36 37 35 39 40 38 42 42 39 46 47 47 48 50 52 48 49 56 61 55 58 56 61 54 50
43 39 43 45 40 40 37 36 40 36 32 32 35 33 34 34 33 34 34 33 32 31 32 34 35 39 40 42 40 41 42 41 45 52 53 55 54 52 55 48 50 56 58 58 61 63 63 67 62
42 46 46 47 46 44 40 38 34 30 31 33 37 37 36 37 38 36 32 31 34 36 39 40 40 41 42 44 46 47 48 45 49 52 61 61 60 61 58 60 60 61 64 63 62 63 60 62 64
44 45 49 50 51 50 47 42 33 29 31 35 37 39 39 38 38 37 37 37 37 36 37 37 40 42 46 48 50 53 52 48 48 55 67 68 63 65 65 64 68 70 66 67 65 64 67 70 68
47 51 51 52 52 52 51 51 35 30 34 36 35 36 38 38 39 39 38 38 38 38 39 40 43 47 51 53 56 58 57 56 48 52 39 55 59 60 66 65 66 71 73 82 81 79 78 72 71
Wind_Direction
76 53 37 34 34 24 26 28 25 28 38 42 46 55 75 97 81 75 97 108 128 141 155 160 153 157 154 155 205 184 154 121 122 117 112 99 51 34 29 28 27 19 16 56 73 72 60 66 62
57 45 39 27 33 33 30 32 31 34 46 47 54 59 56 77 80 77 83 97 101 104 112 115 120 135 153 158 146 143 127 123 123 117 100 75 31 57 36 20 15 14 36 90 90 85 75 71 67
41 48 46 35 39 34 32 39 36 40 49 56 59 62 70 70 71 78 89 92 93 100 108 116 120 126 131 134 140 128 123 121 117 116 101 75 51 39 20 17 20 22 59 104 110 97 92 77 69
51 53 50 43 41 38 36 42 41 42 49 58 66 70 73 75 78 84 88 89 93 102 107 113 116 117 123 130 129 124 125 117 109 107 109 79 23 12 13 27 31 31 71 111 109 102 108 93 78
69 58 51 42 45 41 41 42 45 43 49 56 67 71 75 79 83 83 85 89 94 97 104 109 115 119 125 129 128 130 120 107 103 100 98 58 27 13 18 24 31 29 70 116 112 102 89 83 85
66 47 57 48 49 47 41 44 43 48 46 56 64 71 78 80 81 83 87 90 90 91 94 99 109 117 122 126 128 129 120 109 97 103 81 54 28 7 4 19 34 32 39 123 118 113 93 79 76
19 62 60 47 45 49 46 45 43 48 52 51 63 68 72 75 77 81 82 83 85 88 93 98 104 113 118 121 121 122 119 108 101 99 91 55 32 31 42 39 38 38 37 105 137 122 97 64 49
64 54 53 53 36 40 40 42 44 44 51 54 56 69 73 70 70 68 72 76 77 80 82 86 96 108 114 115 116 116 111 112 107 108 99 63 44 48 42 38 42 44 36 111 111 90 79 76 74
37 47 58 49 37 35 36 33 40 44 46 54 58 64 77 77 76 72 76 79 82 83 85 86 88 95 108 99 95 94 105 101 94 99 106 76 45 42 33 26 44 49 41 102 118 93 101 54 66
40 37 39 44 32 24 37 29 31 31 45 48 54 59 70 77 77 74 71 80 79 79 84 86 80 83 88 90 83 72 72 78 54 47 32 18 4 24 51 52 45 46 45 98 111 149 320 330 359
21 23 36 32 16 12 11 14 26 31 33 43 47 54 57 64 73 78 81 75 72 73 79 77 84 84 83 84 87 77 56 33 11 346 328 310 311 265 317 55 37 22 8 56 115 111 2 319 16
6 25 12 11 21 24 13 36 37 31 31 31 30 38 58 63 56 61 71 76 68 75 59 51 68 77 69 55 46 40 42 86 316 296 298 294 300 280 262 323 353 16 19 1 1 117 94 135 87
25 3 14 37 38 24 24 29 28 40 27 9 19 14 18 43 58 46 42 72 64 52 62 42 31 5 352 106 109 52 84 283 311 303 312 319 318 292 293 299 312 334 293 307 289 122 159 159 269
105 64 37 22 20 29 22 14 2 9 345 0 343 353 356 358 4 22 39 18 40 69 351 25 12 145 277 310 325 274 221 256 293 303 302 316 327 317 274 275 286 263 246 258 283 231 220 180 234
57 18 356 346 6 359 25 13 2 13 348 352 350 356 329 339 340 339 335 326 333 330 319 303 255 274 294 274 271 274 282 260 250 267 276 284 300 325 314 297 281 275 262 232 261 275 268 254 243
87 332 342 1 32 2 343 352 341 343 317 335 318 331 301 332 327 317 320 320 313 309 297 287 272 255 247 252 258 265 262 266 274 274 269 271 283 287 295 310 311 293 286 271 261 260 260 276 264
318 318 299 306 325 301 309 302 346 312 334 317 313 347 322 325 329 320 308 283 285 298 298 293 286 277 271 267 262 261 265 261 261 266 269 272 269 276 282 284 297 294 288 283 279 280 256 253 278
290 305 319 330 327 327 316 314 296 299 310 328 329 336 298 300 307 311 330 284 311 313 308 298 274 276 277 274 268 263 260 261 256 256 264 264 266 266 270 270 272 278 285 283 284 284 279 255 278
290 289 302 298 315 321 311 314 311 302 297 276 302 268 285 271 287 288 305 312 306 313 311 303 274 264 265 268 269 267 264 261 260 262 262 261 260 261 265 266 261 263 268 272 279 283 280 264 272
285 287 290 301 316 312 304 302 300 306 301 287 285 291 289 269 288 294 295 302 304 309 306 288 287 283 262 264 267 264 262 263 266 266 263 261 261 258 261 263 263 265 267 272 277 280 278 273 274
304 288 292 302 299 300 307 301 300 293 281 288 297 299 300 298 292 291 289 294 295 301 302 276 280 272 273 278 271 265 264 265 268 270 267 262 259 260 264 262 262 262 271 272 277 273 268 265 266
293 289 289 286 283 293 307 302 294 294 293 287 293 293 294 291 288 289 293 293 296 299 288 277 280 280 282 287 285 275 268 267 265 265 268 267 267 264 264 262 262 262 264 268 274 282 267 263 264
283 282 281 276 288 294 300 303 303 298 296 295 292 293 287 283 286 291 298 297 300 294 288 285 289 292 300 289 295 288 278 273 272 267 272 269 266 263 262 263 262 265 262 267 269 277 277 262 266
278 281 283 287 285 294 301 305 304 302 300 300 301 300 292 283 280 284 286 290 285 283 286 289 297 290 289 284 280 286 290 285 275 274 273 273 270 268 263 261 256 258 253 264 259 260 267 258 269
280 281 284 285 290 294 299 303 304 306 306 301 300 301 296 293 292 289 286 282 285 294 293 295 292 296 281 263 280 276 275 280 278 276 275 276 266 264 263 259 254 255 256 261 261 248 260 256 258
281 286 291 292 294 293 294 302 299 300 300 298 300 306 306 306 303 299 297 291 290 294 296 298 300 297 290 285 289 286 292 287 284 282 278 276 274 271 258 250 253 256 252 249 255 256 256 259 259
281 284 291 294 291 292 293 297 296 301 299 300 299 293 292 297 300 300 299 293 289 285 289 296 294 293 294 293 291 290 289 282 284 281 279 276 270 266 260 249 252 255 254 249 256 261 260 255 258
285 287 290 292 291 290 292 294 297 296 293 289 286 286 286 289 295 295 298 307 309 310 308 306 303 299 294 295 296 291 291 286 280 283 287 284 277 269 260 257 256 247 251 249 253 260 257 260 259
285 285 287 290 291 292 292 293 296 289 285 281 280 282 289 296 302 306 307 306 302 299 300 303 306 305 301 298 292 290 287 281 277 279 284 278 275 266 264 254 257 248 243 244 246 248 260 265 263
285 286 287 287 288 292 296 298 299 294 287 286 289 290 295 300 298 298 299 300 299 303 302 306 305 305 301 298 296 293 285 280 274 271 267 266 275 272 264 260 256 259 256 255 250 254 258 263 260
Height
11031 11030 11029 11025 11021 11014 11004 10994 10983 10973 10964 10955 10953 10953 10953 10951 10957 10959 10961 10963 10967 10968 10972 10976 10979 10984 10988 10993 10995 10998 10999 10999 11001 11003 11004 11004 11004 11002 11000 10999 10996 10993 10990 10988 10987 10987 10986 10982 10979
11034 11029 11028 11026 11019 11014 11007 10997 10988 10978 10968 10961 10957 10956 10957 10958 10961 10964 10966 10967 10969 10971 10975 10977 10981 10985 10990 10994 10996 10999 11001 11002 11004 11006 11007 11007 11005 11003 11002 10999 10996 10993 10989 10988 10988 10986 10985 10983 10979
11036 11032 11029 11025 11021 11017 11012 11004 10994 10985 10974 10968 10965 10963 10963 10965 10968 10970 10972 10972 10975 10977 10980 10982 10985 10989 10992 10995 10999 11001 11003 11006 11007 11008 11008 11008 11007 11005 11003 11000 10996 10992 10989 10989 10988 10987 10987 10986 10983
11038 11034 11031 11029 11026 11022 11017 11008 11002 10994 10983 10980 10974 10972 10971 10972 10977 10979 10979 10981 10982 10984 10986 10987 10990 10993 10995 10998 11001 11004 11007 11009 11009 11009 11010 11009 11008 11006 11004 11001 10997 10995 10991 10990 10989 10988 10986 10987 10985
11040 11036 11032 11031 11028 11024 11018 11014 11008 11004 10995 10990 10983 10980 10979 10983 10986 10987 10986 10987 10991 10992 10993 10993 10995 10997 10999 11001 11003 11007 11011 11011 11011 11012 11012 11011 11009 11008 11006 11003 10999 10997 10994 10994 10992 10991 10990 10990 10989
11039 11038 11035 11036 11033 11024 11024 11019 11017 11010 11004 11000 10995 10993 10990 10992 10993 10993 10993 10996 10997 10998 10998 10999 11001 11002 11003 11005 11007 11009 11012 11012 11013 11014 11014 11013 11011 11009 11006 11004 11001 10999 10998 10996 10995 10994 10993 10992 10991
11040 11037 11036 11036 11035 11033 11029 11024 11020 11017 11015 11012 11009 11005 11003 11002 11002 11003 11002 11002 11004 11005 11005 11006 11008 11008 11008 11010 11011 11013 11014 11015 11016 11016 11016 11015 11012 11009 11007 11005 11003 11002 11000 10997 10997 10997 10996 10996 10996
11044 11044 11039 11039 11039 11035 11031 11028 11025 11024 11022 11019 11018 11015 11012 11012 11012 11012 11011 11011 11012 11012 11012 11013 11013 11013 11014 11014 11015 11016 11017 11018 11019 11018 11018 11016 11013 11010 11008 11007 11005 11003 11002 11000 11000 11001 11001 11000 11000
11046 11046 11043 11041 11041 11040 11036 11034 11032 11030 11029 11026 11026 11025 11022 11020 11021 11021 11020 11020 11020 11020 11019 11019 11020 11019 11019 11020 11020 11020 11020 11021 11021 11020 11018 11017 11015 11012 11009 11008 11006 11005 11003 11002 11002 11004 11002 11000 11000
11048 11048 11047 11044 11043 11042 11040 11039 11035 11033 11032 11032 11031 11032 11030 11029 11028 11028 11027 11027 11027 11026 11025 11025 11024 11024 11024 11025 11025 11025 11024 11023 11022 11020 11018 11018 11016 11013 11010 11009 11008 11005 11004 11003 11005 11005 11002 11000 10999
11047 11050 11048 11046 11045 11043 11041 11040 11037 11038 11038 11038 11038 11037 11034 11032 11032 11032 11031 11031 11031 11031 11031 11030 11029 11027 11027 11027 11027 11026 11026 11025 11023 11021 11019 11017 11015 11012 11010 11008 11007 11006 11004 11004 11005 11006 11004 11001 10999
11049 11050 11050 11048 11046 11044 11042 11040 11038 11039 11040 11040 11040 11040 11038 11036 11035 11035 11035 11034 11034 11033 11033 11033 11031 11030 11029 11028 11027 11026 11025 11024 11023 11021 11019 11017 11014 11011 11009 11009 11008 11007 11004 11003 11003 11006 11004 11002 11001
11053 11053 11051 11048 11046 11046 11042 11042 11041 11041 11041 11041 11041 11042 11042 11040 11038 11036 11035 11036 11036 11034 11034 11033 11032 11031 11030 11028 11026 11025 11024 11024 11022 11021 11020 11017 11015 11013 11010 11008 11008 11006 11005 11002 11001 11002 11002 11003 11002
11056 11053 11052 11051 11047 11047 11045 11045 11045 11044 11044 11044 11043 11044 11043 11042 11041 11040 11037 11036 11037 11035 11034 11033 11031 11031 11029 11028 11027 11025 11024 11023 11022 11020 11019 11018 11016 11013 11010 11008 11007 11006 11005 11003 10999 11001 11000 11000 11000
11051 11051 11054 11051 11049 11049 11048 11046 11045 11046 11047 11045 11045 11044 11043 11042 11039 11039 11038 11035 11033 11033 11032 11031 11030 11028 11027 11026 11025 11024 11022 11020 11019 11018 11016 11015 11014 11012 11011 11009 11007 11005 11004 11005 11001 10998 10997 10999 10999
11053 11054 11054 11050 11053 11049 11048 11047 11045 11045 11045 11043 11043 11042 11040 11039 11039 11038 11037 11036 11034 11033 11031 11029 11028 11026 11023 11022 11021 11020 11018 11016 11015 11015 11013 11012 11010 11010 11008 11007 11006 11004 11002 11002 11002 10999 10997 10996 10996
11051 11051 11050 11049 11048 11047 11049 11049 11046 11043 11041 11040 11040 11039 11038 11037 11034 11034 11034 11033 11030 11030 11030 11027 11024 11024 11021 11017 11013 11012 11012 11012 11011 11009 11009 11008 11008 11006 11006 11004 11002 10999 10999 10999 10997 10997 10996 10994 10994
11052 11050 11048 11048 11047 11046 11045 11044 11041 11040 11039 11037 11037 11036 11035 11033 11032 11030 11030 11030 11027 11026 11025 11025 11020 11018 11016 11015 11011 11008 11005 11003 11003 11004 11003 11002 11002 11004 11003 11001 10999 10997 10994 10994 10992 10990 10990 10990 10989
11047 11047 11047 11048 11048 11045 11042 11041 11038 11037 11036 11036 11035 11035 11035 11031 11028 11026 11025 11025 11022 11018 11016 11015 11016 11013 11010 11009 11006 11004 11001 11000 10997 10997 10996 10995 10995 10996 10999 10995 10995 10994 10991 10989 10988 10987 10986 10983 10982
11044 11045 11045 11044 11044 11043 11041 11039 11036 11033 11032 11031 11029 11027 11027 11024 11021 11019 11018 11018 11015 11010 11006 11004 11005 11005 11003 11002 10999 10997 10995 10994 10991 10989 10988 10988 10988 10988 10989 10988 10988 10989 10988 10986 10983 10983 10982 10980 10979
11041 11042 11043 11040 11042 11040 11038 11036 11032 11031 11030 11026 11023 11020 11017 11014 11013 11011 11009 11006 11005 11003 10999 10994 10994 10992 10993 10992 10991 10990 10989 10987 10986 10983 10980 10980 10980 10981 10980 10979 10978 10978 10978 10977 10977 10976 10975 10973 10971
11039 11041 11042 11038 11037 11037 11034 11034 11031 11027 11025 11023 11021 11017 11010 11007 11007 11002 10997 10991 10992 10991 10992 10988 10986 10985 10984 10982 10977 10978 10977 10976 10973 10969 10968 10968 10968 10970 10971 10970 10971 10970 10969 10968 10968 10966 10965 10965 10962
11038 11038 11036 11034 11033 11031 11029 11028 11025 11021 11019 11017 11015 11013 11009 11004 10999 10996 10990 10986 10982 10981 10981 10979 10978 10976 10973 10972 10972 10969 10966 10964 10962 10960 10958 10956 10956 10955 10956 10959 10961 10962 10959 10957 10957 10956 10954 10953 10953
11031 11027 11025 11028 11028 11025 11021 11016 11015 11012 11012 11008 11006 11006 11003 10999 10996 10993 10989 10983 10978 10975 10972 10969 10969 10968 10965 10961 10961 10960 10957 10954 10951 10949 10948 10945 10945 10944 10943 10943 10947 10948 10948 10946 10947 10944 10943 10943 10945
11021 11020 11019 11020 11022 11022 11015 11007 11001 10999 10996 10992 10989 10989 10994 10991 10988 10986 10982 10979 10973 10967 10965 10962 10962 10961 10957 10954 10953 10949 10946 10943 10940 10937 10936 10935 10933 10932 10930 10931 10931 10933 10934 10933 10930 10932 10930 10931 10931
11012 11012 11008 11010 11011 11012 11011 11006 10996 10994 10990 10985 10980 10975 10974 10975 10974 10973 10972 10969 10965 10960 10956 10954 10951 10949 10949 10946 10943 10938 10933 10929 10927 10924 10924 10921 10920 10918 10917 10919 10920 10920 10918 10918 10919 10919 10919 10920 10921
11004 11003 11001 11000 11002 11002 11004 11000 10991 10986 10982 10977 10972 10971 10968 10968 10967 10963 10961 10959 10956 10954 10951 10946 10945 10941 10935 10932 10930 10925 10922 10918 10914 10909 10907 10906 10904 10904 10902 10902 10904 10904 10903 10904 10904 10907 10908 10908 10910
10998 10993 10990 10989 10989 10992 10995 10993 10989 10981 10975 10972 10966 10963 10961 10960 10958 10955 10953 10949 10945 10940 10937 10934 10930 10927 10924 10919 10914 10911 10908 10907 10902 10894 10887 10886 10886 10885 10886 10887 10889 10887 10889 10891 10892 10891 10892 10894 10896
10987 10984 10982 10980 10979 10977 10981 10985 10985 10977 10971 10964 10960 10956 10952 10949 10946 10943 10941 10939 10937 10935 10930 10925 10919 10912 10908 10906 10901 10896 10895 10894 10890 10883 10869 10862 10863 10865 10865 10868 10869 10870 10872 10874 10876 10878 10878 10879 10881
10978 10975 10972 10969 10968 10964 10962 10964 10973 10969 10960 10954 10952 10947 10943 10939 10935 10934 10933 10931 10926 10924 10920 10914 10908 10903 10895 10887 10882 10877 10875 10875 10876 10869 10851 10835 10840 10842 10842 10845 10848 10848 10853 10855 10858 10861 10862 10863 10865